Location: Bartshausen
(51.8454°N, 9.8167°E)
Time: 11:46:26
(UTC+00:00)

USA 238 DEB - Pass Details

Date: 08 November 2025
Orbit: 886 x 1325 km, 63.4° (Epoch: 24 November)

Event Time Altitude Azimuth Distance (km) Brightness Sun altitude
Exits shadow 03:33:05 48° 322° (NW) 1,326 3.9 -27.1°
Maximum altitude 03:33:26 48° 331° (NNW) 1,324 4.0 -27.0°
Drops below altitude 10° 03:40:14 10° 46° (NE) 2,999 6.7 -26.0°
Sets 03:43:13 0° 52° (NE) 4,031 7.6 -25.5°
